Location: Rocktram
(38.2574°N, 122.2805°W)
Time: 02:51:55
(UTC+00:00)

IRIDIUM 104 - Pass Details

Date: 30 March 2020
Orbit: 776 x 779 km, 86.4° (Epoch: 30 May)

Event Time Altitude Azimuth Distance (km) Brightness Sun altitude
Rises 04:09:35 0° 1° (N) 3,271 7.8 -19.7°
Reaches altitude 10° 04:11:58 10° 5° (N) 2,339 7.0 -20.1°
Maximum altitude 04:17:09 62° 86° (E) 873 4.3 -21.1°
Enters shadow 04:18:47 42° 147° (SSE) 1,109 4.7 -21.4°
